When you browse on this site, cookies collect data to enhance your experience and personalize the content and advertising you see.
Visit our Privacy Policy to learn more. By continuing to use the site, you agree to this use of cookies and data.
  • In Romania
  • List of Countries
  • For 7 days
  • Water Temperature
  • Weather Map
  • Weather Widgets
  • user-avatar
    Login

    Hourly Weather Saint-Pierre-des-Corps

    Today, 26 August, Monday

    Time Temperature Precipitation Wind Pressure Humidity
    00:00 +23°C° 0 mm 1 mps 758 mmHg 51%
    01:00 +23°C° 0 mm 1 mps 758 mmHg 50%
    02:00 +23°C° 0 mm 1 mps 758 mmHg 49%
    03:00 +21°C° 0 mm 2 mps 758 mmHg 48%
    04:00 +21°C° 0 mm 2 mps 758 mmHg 48%
    05:00 +21°C° 0 mm 2 mps 758 mmHg 48%
    06:00 +21°C° 0 mm 2 mps 758 mmHg 48%
    07:00 +25°C° 0 mm 2 mps 757 mmHg 43%
    08:00 +27°C° 0 mm 2 mps 757 mmHg 38%
    09:00 +30°C° 0 mm 2 mps 757 mmHg 33%
    10:00 +32°C° 0 mm 2 mps 757 mmHg 30%
    11:00 +34°C° 0 mm 2 mps 757 mmHg 27%
    12:00 +36°C° 0 mm 3 mps 757 mmHg 24%
    13:00 +36°C° 0 mm 3 mps 756 mmHg 23%
    14:00 +37°C° 0 mm 3 mps 756 mmHg 23%
    15:00 +37°C° 0 mm 3 mps 755 mmHg 22%
    16:00 +36°C° 0 mm 3 mps 755 mmHg 25%
    17:00 +34°C° 0 mm 3 mps 755 mmHg 28%
    18:00 +33°C° 0 mm 3 mps 755 mmHg 31%
    19:00 +30°C° 0 mm 3 mps 755 mmHg 32%
    20:00 +28°C° 0 mm 3 mps 755 mmHg 32%
    21:00 +26°C° 0 mm 3 mps 756 mmHg 33%
    22:00 +26°C° 0 mm 3 mps 756 mmHg 33%
    23:00 +25°C° 0 mm 3 mps 755 mmHg 33%

    Tomorrow, 27 August, Tuesday

    Time Temperature Precipitation Wind Pressure Humidity
    00:00 +24°C° 0 mm 2 mps 755 mmHg 33%
    01:00 +24°C° 0 mm 2 mps 755 mmHg 35%
    02:00 +24°C° 0 mm 2 mps 755 mmHg 37%
    03:00 +23°C° 0 mm 2 mps 755 mmHg 40%
    04:00 +23°C° 0 mm 2 mps 755 mmHg 43%
    05:00 +23°C° 0 mm 2 mps 755 mmHg 47%
    06:00 +21°C° 0 mm 2 mps 755 mmHg 51%
    07:00 +25°C° 0 mm 2 mps 755 mmHg 45%
    08:00 +27°C° 0 mm 2 mps 755 mmHg 40%
    09:00 +30°C° 0 mm 3 mps 756 mmHg 34%
    10:00 +31°C° 0 mm 3 mps 755 mmHg 32%
    11:00 +34°C° 0 mm 3 mps 755 mmHg 30%
    12:00 +36°C° 0 mm 3 mps 755 mmHg 27%
    13:00 +36°C° 0 mm 3 mps 755 mmHg 27%
    14:00 +37°C° 0 mm 3 mps 755 mmHg 26%
    15:00 +37°C° 0 mm 3 mps 754 mmHg 25%
    16:00 +36°C° 0 mm 3 mps 754 mmHg 28%
    17:00 +34°C° 0 mm 2 mps 754 mmHg 31%
    18:00 +32°C° 0 mm 2 mps 754 mmHg 34%
    19:00 +30°C° 0 mm 2 mps 755 mmHg 39%
    20:00 +28°C° 0 mm 2 mps 755 mmHg 43%
    21:00 +26°C° 0 mm 2 mps 755 mmHg 48%
    22:00 +25°C° 0 mm 2 mps 756 mmHg 52%
    23:00 +24°C° 0 mm 1 mps 756 mmHg 56%

    Day after tomorrow, 28 August, Wednesday

    Time Temperature Precipitation Wind Pressure Humidity
    00:00 +23°C° 0 mm 1 mps 756 mmHg 61%
    01:00 +23°C° 0 mm 1 mps 756 mmHg 64%
    02:00 +22°C° 0 mm 1 mps 756 mmHg 67%
    03:00 +22°C° 0 mm 1 mps 756 mmHg 69%
    04:00 +22°C° 0 mm 1 mps 756 mmHg 72%
    05:00 +21°C° 0 mm 2 mps 756 mmHg 74%
    06:00 +21°C° 0 mm 2 mps 756 mmHg 76%
    07:00 +23°C° 0 mm 2 mps 756 mmHg 69%
    08:00 +25°C° 0 mm 2 mps 756 mmHg 62%
    09:00 +27°C° 0 mm 2 mps 756 mmHg 55%
    10:00 +28°C° 0.1 mm 3 mps 756 mmHg 50%
    11:00 +30°C° 0.1 mm 3 mps 756 mmHg 46%
    12:00 +31°C° 0.1 mm 3 mps 756 mmHg 41%
    13:00 +33°C° 0 mm 3 mps 756 mmHg 40%
    14:00 +33°C° 0 mm 3 mps 755 mmHg 38%
    15:00 +34°C° 0 mm 3 mps 755 mmHg 37%
    16:00 +32°C° 0 mm 4 mps 755 mmHg 41%
    17:00 +30°C° 0 mm 4 mps 755 mmHg 45%
    18:00 +29°C° 0 mm 4 mps 755 mmHg 49%
    19:00 +27°C° 0.1 mm 4 mps 756 mmHg 58%
    20:00 +25°C° 0.1 mm 3 mps 756 mmHg 67%
    21:00 +22°C° 0.1 mm 3 mps 757 mmHg 76%
    22:00 +21°C° 0 mm 3 mps 757 mmHg 75%
    23:00 +19°C° 0 mm 3 mps 757 mmHg 75%

    29 August, Thursday

    Time Temperature Precipitation Wind Pressure Humidity
    00:00 +18°C° 0 mm 3 mps 757 mmHg 74%
    01:00 +18°C° 0 mm 3 mps 758 mmHg 79%
    02:00 +17°C° 0 mm 3 mps 758 mmHg 84%
    03:00 +16°C° 0 mm 3 mps 758 mmHg 89%
    04:00 +16°C° 0 mm 3 mps 758 mmHg 90%
    05:00 +16°C° 0 mm 3 mps 758 mmHg 91%
    06:00 +16°C° 0 mm 3 mps 758 mmHg 92%
    07:00 +18°C° 0 mm 3 mps 759 mmHg 83%
    08:00 +20°C° 0 mm 2 mps 759 mmHg 74%
    09:00 +23°C° 0 mm 2 mps 760 mmHg 65%
    10:00 +25°C° 0 mm 2 mps 760 mmHg 57%
    11:00 +26°C° 0 mm 2 mps 760 mmHg 49%
    12:00 +28°C° 0 mm 3 mps 760 mmHg 41%
    13:00 +28°C° 0 mm 3 mps 760 mmHg 41%
    14:00 +28°C° 0 mm 3 mps 759 mmHg 40%
    15:00 +29°C° 0 mm 3 mps 759 mmHg 40%
    16:00 +27°C° 0 mm 3 mps 759 mmHg 44%
    17:00 +26°C° 0 mm 3 mps 759 mmHg 47%
    18:00 +25°C° 0 mm 3 mps 759 mmHg 50%
    19:00 +22°C° 0 mm 3 mps 760 mmHg 54%
    20:00 +21°C° 0 mm 3 mps 760 mmHg 58%
    21:00 +19°C° 0 mm 4 mps 761 mmHg 62%
    22:00 +18°C° 0 mm 3 mps 761 mmHg 62%
    23:00 +17°C° 0 mm 3 mps 761 mmHg 63%

    30 August, Friday

    Time Temperature Precipitation Wind Pressure Humidity
    00:00 +16°C° 0 mm 3 mps 761 mmHg 63%
    01:00 +14°C° 0 mm 3 mps 761 mmHg 64%
    02:00 +14°C° 0 mm 3 mps 761 mmHg 66%
    03:00 +13°C° 0 mm 3 mps 760 mmHg 67%
    04:00 +13°C° 0 mm 3 mps 761 mmHg 68%
    05:00 +13°C° 0 mm 3 mps 761 mmHg 69%
    06:00 +13°C° 0 mm 3 mps 761 mmHg 69%
    07:00 +17°C° 0 mm 3 mps 761 mmHg 63%
    08:00 +19°C° 0 mm 3 mps 761 mmHg 56%
    09:00 +22°C° 0 mm 3 mps 761 mmHg 49%
    10:00 +24°C° 0 mm 3 mps 760 mmHg 45%
    11:00 +26°C° 0 mm 3 mps 760 mmHg 42%
    12:00 +27°C° 0 mm 2 mps 760 mmHg 39%
    13:00 +28°C° 0 mm 2 mps 759 mmHg 36%
    14:00 +29°C° 0 mm 2 mps 759 mmHg 33%
    15:00 +30°C° 0 mm 2 mps 758 mmHg 31%
    16:00 +28°C° 0 mm 2 mps 758 mmHg 33%
    17:00 +27°C° 0 mm 3 mps 758 mmHg 36%
    18:00 +26°C° 0 mm 3 mps 758 mmHg 38%
    19:00 +24°C° 0 mm 3 mps 758 mmHg 40%
    20:00 +21°C° 0 mm 3 mps 758 mmHg 42%
    21:00 +20°C° 0 mm 3 mps 758 mmHg 43%
    22:00 +19°C° 0 mm 3 mps 758 mmHg 44%
    23:00 +18°C° 0 mm 3 mps 758 mmHg 45%

    31 August, Saturday

    Time Temperature Precipitation Wind Pressure Humidity
    00:00 +17°C° 0 mm 3 mps 758 mmHg 45%
    01:00 +17°C° 0 mm 2 mps 757 mmHg 48%
    02:00 +17°C° 0 mm 2 mps 757 mmHg 50%
    03:00 +16°C° 0 mm 2 mps 757 mmHg 52%
    04:00 +16°C° 0 mm 2 mps 756 mmHg 54%
    05:00 +16°C° 0 mm 2 mps 756 mmHg 57%
    06:00 +16°C° 0 mm 1 mps 756 mmHg 60%
    07:00 +20°C° 0 mm 1 mps 756 mmHg 54%
    08:00 +23°C° 0 mm 1 mps 757 mmHg 49%
    09:00 +25°C° 0 mm 1 mps 757 mmHg 43%
    10:00 +27°C° 0 mm 1 mps 756 mmHg 40%
    11:00 +29°C° 0 mm 1 mps 756 mmHg 37%
    12:00 +31°C° 0 mm 1 mps 756 mmHg 33%
    13:00 +31°C° 0 mm 2 mps 755 mmHg 32%
    14:00 +32°C° 0 mm 2 mps 755 mmHg 31%
    15:00 +33°C° 0 mm 3 mps 755 mmHg 31%
    16:00 +31°C° 0 mm 3 mps 755 mmHg 33%
    17:00 +29°C° 0 mm 3 mps 754 mmHg 35%
    18:00 +28°C° 0 mm 3 mps 754 mmHg 36%
    19:00 +26°C° 0 mm 3 mps 755 mmHg 43%
    20:00 +22°C° 0 mm 3 mps 755 mmHg 49%
    21:00 +20°C° 0 mm 3 mps 756 mmHg 55%
    22:00 +18°C° 0 mm 3 mps 756 mmHg 62%
    23:00 +17°C° 0 mm 3 mps 756 mmHg 70%
    Show more